FW0730 Weather Reports


time (UTC)temp
C
wind
direction
speed
KPH
gust
KPH
rain 1hr
cm
rain 24hr
cm
rain mn
cm
humidity
%
barometer
mb
20260906083016 22 0.0 0.0 0.00 0.00 0.00 94 1010.2
20260906082016 22 0.0 0.0 0.00 0.00 0.00 94 1010.1
20260906081016 22 0.0 0.0 0.00 0.00 0.00 94 1010.0
20260906080016 22 0.0 0.0 0.00 0.00 0.00 94 1009.9
20260906075036 22 0.0 0.0 0.00 0.00 0.00 94 1009.7
20260906074016 22 0.0 0.0 0.00 0.00 0.00 94 1009.8
20260906073016 22 0.0 0.0 0.00 0.00 0.00 94 1009.8
20260906072016 22 0.0 0.0 0.00 0.00 0.00 94 1009.8
20260906071016 22 0.0 0.0 0.00 0.00 0.00 93 1010.0
20260906070036 22 0.0 0.0 0.00 0.00 0.00 93 1010.3
20260906065016 22 0.0 0.0 0.00 0.00 0.00 93 1010.2
20260906064016 22 0.0 0.0 0.00 0.00 0.00 93 1010.2
20260906063016 22 0.0 0.0 0.00 0.00 0.00 93 1010.5
20260906062036 22 0.0 0.0 0.00 0.00 0.00 92 1010.5
20260906061036 22 0.0 0.0 0.00 0.00 0.00 92 1010.6
20260906060056 23 0.0 0.0 0.00 0.00 0.00 91 1010.7
20260906055016 23 0.0 0.0 0.00 0.00 0.00 91 1010.9
20260906054016 23 0.0 0.0 0.00 0.00 0.00 91 1011.0
20260906053016 23 0.0 0.0 0.00 0.00 0.00 91 1011.0
20260906052016 23 0.0 0.0 0.00 0.00 0.00 90 1011.0
20260906051016 23 0.0 0.0 0.00 0.00 0.00 90 1011.2
20260906050036 23 0.0 0.0 0.00 0.00 0.00 90 1011.2
20260906045036 23 0.0 0.0 0.00 0.00 0.00 89 1011.3
20260906044016 23 0.0 0.0 0.00 0.00 0.00 89 1011.3
20260906043016 23 0.0 0.0 0.00 0.00 0.00 89 1011.4
20260906042056 23 0.0 0.0 0.00 0.00 0.00 89 1011.6
20260906041016 23 0.0 0.0 0.00 0.00 0.00 90 1011.5
20260906040016 23 0.0 0.0 0.00 0.00 0.00 90 1011.5
20260906035017 23 0.0 0.0 0.00 0.00 0.00 91 1011.6
20260906034017 23 0.0 0.0 0.00 0.00 0.00 91 1011.5
20260906033017 23 0.0 0.0 0.00 0.00 0.00 91 1011.6
20260906032015 23 0.0 0.0 0.00 0.00 0.00 92 1011.6
20260906031035 23 0.0 0.0 0.00 0.00 0.00 91 1011.5
20260906030015 23 0.0 0.0 0.00 0.00 0.00 91 1011.5
20260906025015 23 0.0 0.0 0.00 0.00 0.00 91 1011.4
20260906024015 23 0.0 0.0 0.00 0.00 0.00 90 1011.3
20260906023015 23 0.0 0.0 0.00 0.00 0.00 90 1011.4
20260906022015 23 0.0 0.0 0.00 0.00 0.00 89 1011.4
20260906021015 24 0.0 0.0 0.00 0.00 0.00 89 1011.5
20260906020015 24 0.0 0.0 0.00 0.00 0.00 88 1011.3
20260906015015 24 0.0 0.0 0.00 0.00 0.00 87 1011.3
20260906014015 24 0.0 0.0 0.00 0.00 0.00 87 1011.3
20260906013015 24 0.0 0.0 0.00 0.00 0.00 87 1011.0
20260906012015 24 0.0 0.0 0.00 0.00 0.00 88 1011.0
20260906011016 24 0.0 0.0 0.00 0.00 0.00 87 1010.6
20260906010035 25 0.0 0.0 0.00 0.00 0.00 86 1010.5
20260906005015 25 0.0 0.0 0.00 0.00 0.00 86 1010.5
20260906004015 25 0.0 0.0 0.00 0.00 0.00 85 1010.4
20260906003036 25 0.0 0.0 0.00 0.00 0.00 84 1010.3
20260906002015 26 0.0 0.0 0.00 0.00 0.00 83 1010.3
20260906001035 26 0.0 0.0 0.00 0.00 0.00 82 1010.2
20260906000015 26 0.0 0.0 0.00 0.00 0.00 81 1010.0
20260905235035 27 0.0 1.6 0.00 0.00 0.00 78 1009.8
20260905234016 27 0.0 1.6 0.00 0.00 0.00 75 1009.8
20260905233015 27 0.0 0.0 0.00 0.00 0.00 74 1009.7
20260905232035 28 0.0 0.0 0.00 0.00 0.00 72 1009.6
20260905231036 28 0.0 0.0 0.00 0.00 0.00 71 1009.8
20260905230035 28 0.0 1.6 0.00 0.00 0.00 72 1009.8
20260905225016 28 0.0 0.0 0.00 0.00 0.00 69 1009.9
20260905224015 29 0 1.6 4.8 0.00 0.00 0.00 69 1009.6
20260905223015 28 0.0 1.6 0.00 0.00 0.00 70 1009.3
20260905222016 28 338 1.6 3.2 0.00 0.00 0.00 69 1009.4
20260905221015 29 0.0 0.0 0.00 0.00 0.00 70 1009.4
20260905220015 28 0.0 0.0 0.00 0.00 0.00 71 1009.5
20260905215015 28 0.0 1.6 0.00 0.00 0.00 72 1009.6
20260905214015 28 0.0 0.0 0.00 0.00 0.00 72 1009.8
20260905213016 27 0 1.6 6.4 0.00 0.00 0.00 72 1010.0
20260905212017 27 0.0 4.8 0.00 0.00 0.00 73 1010.5
20260905211016 27 0 1.6 6.4 0.00 0.00 0.00 75 1010.5
20260905210016 27 0.0 3.2 0.00 0.00 0.00 77 1010.4
20260905205016 27 0.0 0.0 0.00 0.00 0.00 78 1010.4
20260905204015 27 0.0 4.8 0.00 0.00 0.00 78 1010.3
20260905203015 27 0 1.6 6.4 0.00 0.00 0.00 78 1010.0
20260905202016 27 45 1.6 6.4 0.00 0.00 0.00 79 1009.8
20260905201015 27 0 1.6 6.4 0.00 0.00 0.00 79 1009.9
20260905200015 27 0.0 0.0 0.00 0.00 0.00 80 1010.2
20260905195036 27 0.0 3.2 0.00 0.00 0.00 80 1010.2
20260905194016 26 45 1.6 4.8 0.00 0.00 0.00 80 1010.1
20260905193016 27 45 3.2 6.4 0.00 0.00 0.00 79 1010.3
20260905192015 26 0.0 1.6 0.00 0.00 0.00 80 1010.0
20260905191035 26 135 4.8 11.3 0.00 0.00 0.00 78 1009.6
20260905190015 28 45 11.3 22.5 0.00 0.00 0.00 71 1010.5
20260905185016 34 45 9.7 45.1 0.00 0.00 0.00 56 1010.7
20260905184016 35 23 4.8 9.7 0.00 0.00 0.00 54 1010.2
20260905183016 36 23 4.8 11.3 0.00 0.00 0.00 53 1010.2
20260905182016 36 23 4.8 8.0 0.00 0.00 0.00 51 1010.0
20260905181016 36 0 3.2 9.7 0.00 0.00 0.00 53 1010.2
20260905180016 36 315 3.2 8.0 0.00 0.00 0.00 52 1010.6
20260905175016 36 23 3.2 6.4 0.00 0.00 0.00 53 1010.8
20260905174016 36 45 3.2 8.0 0.00 0.00 0.00 54 1011.0
20260905173015 35 338 1.6 6.4 0.00 0.00 0.00 59 1011.3
20260905172015 35 23 3.2 6.4 0.00 0.00 0.00 60 1011.5
20260905171016 35 90 1.6 6.4 0.00 0.00 0.00 60 1011.6
20260905170116 35 113 1.6 6.4 0.00 0.00 0.00 58 1011.5
20260905165015 35 338 1.6 6.4 0.00 0.00 0.00 61 1011.8
20260905164016 35 45 3.2 6.4 0.00 0.00 0.00 59 1012.0
20260905163016 34 23 1.6 8.0 0.00 0.00 0.00 62 1012.2
20260905162036 34 0 1.6 8.0 0.00 0.00 0.00 62 1012.3
20260905161016 34 23 1.6 4.8 0.00 0.00 0.00 66 1012.4
20260905160016 33 45 3.2 9.7 0.00 0.00 0.00 65 1012.5
20260905155036 33 293 1.6 3.2 0.00 0.00 0.00 67 1012.6
20260905154016 33 45 1.6 4.8 0.00 0.00 0.00 67 1012.5
20260905153016 33 0 1.6 6.4 0.00 0.00 0.00 67 1012.6
20260905152016 32 23 1.6 3.2 0.00 0.00 0.00 70 1012.6
20260905151016 32 23 1.6 4.8 0.00 0.00 0.00 73 1012.7
20260905150036 32 338 3.2 6.4 0.00 0.00 0.00 72 1012.7
20260905145016 31 0.0 3.2 0.00 0.00 0.00 75 1012.7
20260905144016 31 0.0 3.2 0.00 0.00 0.00 74 1012.7
20260905143016 31 23 1.6 6.4 0.00 0.00 0.00 75 1012.7
20260905142016 31 23 1.6 4.8 0.00 0.00 0.00 75 1012.8
20260905141016 31 0.0 0.0 0.00 0.00 0.00 76 1012.7
20260905140016 30 0.0 4.8 0.00 0.00 0.00 76 1012.7
20260905135016 30 45 1.6 8.0 0.00 0.00 0.00 76 1012.8
20260905134016 30 0.0 4.8 0.00 0.00 0.00 77 1012.9
20260905133016 30 338 1.6 6.4 0.00 0.00 0.00 78 1012.8
20260905132036 29 0 1.6 4.8 0.00 0.00 0.00 80 1012.9
20260905131016 28 0 1.6 3.2 0.00 0.00 0.00 81 1012.8
20260905130056 28 0.0 0.0 0.00 0.00 0.00 82 1013.0
20260905125016 28 0.0 0.0 0.00 0.00 0.00 82 1012.9
20260905124016 27 0.0 0.0 0.00 0.00 0.00 83 1013.0
20260905123016 27 0.0 0.0 0.00 0.00 0.00 85 1013.0
20260905122056 27 0.0 0.0 0.00 0.00 0.00 87 1013.1
20260905121016 26 0.0 0.0 0.00 0.00 0.00 89 1013.0
20260905120036 25 0.0 0.0 0.00 0.00 0.00 91 1012.9
20260905115136 25 0.0 0.0 0.00 0.00 0.00 93 1012.9
20260905114036 24 0.0 0.0 0.00 0.00 0.00 94 1012.8
20260905113016 23 0.0 0.0 0.00 0.00 0.00 95 1012.6
20260905112016 23 0.0 0.0 0.00 0.00 0.00 95 1012.5
20260905111016 23 0.0 0.0 0.00 0.00 0.00 94 1012.3
20260905110016 23 0.0 0.0 0.00 0.00 0.00 94 1011.9
20260905105036 23 0.0 0.0 0.00 0.00 0.00 94 1011.9
20260905104016 23 0.0 0.0 0.00 0.00 0.00 94 1011.7
20260905103016 23 0.0 0.0 0.00 0.00 0.00 94 1011.7
20260905102016 23 0.0 0.0 0.00 0.00 0.00 94 1011.7
20260905101036 23 0.0 0.0 0.00 0.00 0.00 93 1011.7
20260905100016 23 0.0 0.0 0.00 0.00 0.00 93 1011.8
20260905095016 24 0.0 0.0 0.00 0.00 0.00 93 1011.7
20260905094016 24 0.0 0.0 0.00 0.00 0.00 93 1011.8
20260905093016 24 0.0 0.0 0.00 0.00 0.00 93 1011.9
20260905092016 24 0.0 0.0 0.00 0.00 0.00 93 1011.9
20260905091016 24 0.0 0.0 0.00 0.00 0.00 93 1011.9
20260905090016 24 0.0 0.0 0.00 0.00 0.00 92 1011.9
20260905085036 25 0.0 0.0 0.00 0.00 0.00 91 1012.0
20260905084016 25 0.0 0.0 0.00 0.00 0.00 90 1012.0